Regional Weather Roundup
Issued by NWS Charleston, WV

Home | Current Version | Previous Version | Graphics & Text | Print | Product List | Glossary On
Versions: 1 2 3 4 5 6 7 8 9 10 11 12 13 14 15 16 17 18 19 20 21 22 23 24 25 26 27 28 29 30 31 32 33 34 35 36 37 38 39 40 41 42 43 44 45 46 47 48
000
ASUS41 KRLX 041710
RWRRLX
West Virginia Regional Weather Roundup
National Weather Service Charleston WV
100 PM EDT TUE AUG 04 2015

Note: "fair" indicates few or no clouds below 12,000 feet with no
significant weather and/or obstructions to visibility.

WVZ003-041800-
Northern Panhandle of West Virginia

CITY           SKY/WX    TMP DP  RH WIND       PRES   REMARKS
WHEELING       PTSUNNY   77  54  44 NW7       30.00F
$$

WVZ009-041800-
Northwest West Virginia

CITY           SKY/WX    TMP DP  RH WIND       PRES   REMARKS
PARKERSBURG    MOSUNNY   83  58  42 VRB3      30.01F
$$

WVZ006-041800-
Western West Virginia

CITY           SKY/WX    TMP DP  RH WIND       PRES   REMARKS
HUNTINGTON     MOSUNNY   81  68  64 S7        29.99F
$$

WVZ015-041800-
West Central West Virginia

CITY           SKY/WX    TMP DP  RH WIND       PRES   REMARKS
CHARLESTON     MOSUNNY   81  66  60 VRB7      30.01S
$$

WVZ022-031-041800-
North Central West Virginia

CITY           SKY/WX    TMP DP  RH WIND       PRES   REMARKS
CLARKSBURG     PTSUNNY   80  61  52 W6        30.00S
MORGANTOWN     SUNNY     82  55  39 VRB5      30.01F
$$

WVZ025-035-042-045-041800-
Southern West Virginia

CITY           SKY/WX    TMP DP  RH WIND       PRES   REMARKS
BECKLEY        PTSUNNY   78  66  66 SW13G18   30.10S
LOGAN            N/A     79  72  78 NW6       30.02S
BLUEFIELD      PTSUNNY   82  65  56 W10G20    30.13S
LEWISBURG      MOSUNNY   82  64  53 W10       30.08F
$$

WVZ047-041800-
Northern Mountains of West Virginia

CITY           SKY/WX    TMP DP  RH WIND       PRES   REMARKS
ELKINS         PTSUNNY   81  63  54 W9        30.04S
$$

WVZ052-041800-
Eastern Panhandle of West Virginia

CITY           SKY/WX    TMP DP  RH WIND       PRES   REMARKS
MARTINSBURG    MOSUNNY   86  63  45 W15       29.95F
PETERSBURG     MOSUNNY   83  62  48 W10       29.97S
$$


USA.gov is the U.S. government's official web portal to all federal, state and local government web resources and services.